Terminal Aerodrome Forecast
Issued by NWS Quad Cities IA IL

Home | Current Version | Previous Version | Text Only | Print | Product List | Glossary On
Versions: 1 2 3 4 5 6 7 8 9 10 11 12 13 14 15 16 17 18 19 20 21 22 23 24 25 26 27 28 29 30
000
FTUS43 KDVN 281729
TAFDBQ
TAF
KDBQ 281729Z 2818/2918 22008KT P6SM SCT025 OVC200
      TEMPO 2818/2820 5SM -TSRA BR BKN025CB
     FM282000 19010KT P6SM SCT035 BKN050
     FM290000 VRB03KT P6SM BKN050
     FM290600 VRB03KT 4SM BR SCT050
      TEMPO 2908/2912 2SM BR
     FM291400 33006KT P6SM BKN025=

USA.gov is the U.S. government's official web portal to all federal, state and local government web resources and services.